GW2291 Weather Reports


time (UTC)temp
C
wind
direction
speed
KPH
gust
KPH
rain 1hr
cm
rain 24hr
cm
rain mn
cm
humidity
%
barometer
mb
20260905222738 22 270 0.0 0.0 0.00 0.00 0.00 50 1014.5
20260905222230 25 113 0.0 0.0 0.00 0.00 0.00 44 1014.6
20260905203526 25 45 0.0 0.0 0.00 0.00 0.00 43 1015.4
20260905203022 25 23 3.2 3.2 0.00 0.00 0.00 42 1015.4
20260905202510 24 203 0.0 0.0 0.00 0.00 0.00 43 1015.6
20260905183602 20 338 1.6 1.6 0.00 0.00 0.00 57 1017.1
20260905183058 20 23 1.6 1.6 0.00 0.00 0.00 56 1017.1
20260905182547 20 113 0.0 0.0 0.00 0.00 0.00 59 1017.1
20260905182041 19 45 1.6 1.6 0.00 0.00 0.00 62 1017.2
20260905175816 19 23 0.0 0.0 0.00 0.00 0.00 61 1017.4
20260905175308 18 0 1.6 1.6 0.00 0.00 0.00 64 1017.4
20260905174758 18 338 1.6 1.6 0.00 0.00 0.00 63 1017.5
20260905174253 18 113 0.0 0.0 0.00 0.00 0.00 63 1017.5
20260905173748 17 135 3.2 3.2 0.00 0.00 0.00 66 1017.5
20260905173243 18 270 0.0 0.0 0.00 0.00 0.00 67 1017.6
20260905172738 17 113 0.0 0.0 0.00 0.00 0.00 66 1017.6
20260905172228 17 135 3.2 3.2 0.00 0.00 0.00 66 1017.6
20260905171723 17 338 1.6 1.6 0.00 0.00 0.00 68 1017.6
20260905171218 17 90 1.6 1.6 0.00 0.00 0.00 68 1017.7
20260905170215 14 338 0.0 0.0 0.00 0.00 0.00 74 1017.7
20260905030600 14 248 0.0 0.0 0.00 0.00 0.00 74 1015.9
20260905030053 14 248 0.0 0.0 0.00 0.00 0.00 74 1015.8
20260905024538 15 90 0.0 0.0 0.00 0.00 0.00 71 1015.7
20260905023523 15 180 0.0 0.0 0.00 0.00 0.00 69 1015.7
20260905023018 15 158 1.6 1.6 0.00 0.00 0.00 69 1015.7
20260905022513 15 180 0.0 0.0 0.00 0.00 0.00 69 1015.6
20260905020955 16 225 0.0 0.0 0.00 0.00 0.00 69 1015.5
20260905015945 16 270 0.0 0.0 0.00 0.00 0.00 65 1015.4
20260905015438 16 203 0.0 0.0 0.00 0.00 0.00 67 1015.4
20260905014928 16 180 0.0 0.0 0.00 0.00 0.00 65 1015.4
20260905014423 16 180 0.0 0.0 0.00 0.00 0.00 66 1015.4
20260905013918 16 90 0.0 0.0 0.00 0.00 0.00 68 1015.4
20260905013413 16 338 0.0 0.0 0.00 0.00 0.00 68 1015.3
20260905012908 16 45 0.0 0.0 0.00 0.00 0.00 69 1015.3
20260905011853 17 23 0.0 0.0 0.00 0.00 0.00 66 1015.2
20260905011349 17 113 0.0 0.0 0.00 0.00 0.00 67 1015.2
20260905010843 17 203 1.6 1.6 0.00 0.00 0.00 69 1015.2
20260905010338 17 203 0.0 0.0 0.00 0.00 0.00 68 1015.2
20260905005829 17 248 0.0 0.0 0.00 0.00 0.00 63 1015.2
20260905005323 17 203 0.0 0.0 0.00 0.00 0.00 62 1015.2
20260905004818 17 248 0.0 0.0 0.00 0.00 0.00 60 1015.0
20260905004313 17 225 0.0 0.0 0.00 0.00 0.00 59 1015.0
20260905003300 17 23 3.2 3.2 0.00 0.00 0.00 59 1015.0
20260905002753 18 225 0.0 0.0 0.00 0.00 0.00 60 1015.0
20260905002250 17 270 0.0 0.0 0.00 0.00 0.00 61 1014.8
20260905001743 17 158 0.0 0.0 0.00 0.00 0.00 61 1014.8
20260905001238 17 225 0.0 0.0 0.00 0.00 0.00 60 1015.0
20260905000728 18 225 0.0 0.0 0.00 0.00 0.00 59 1015.0
20260904234032 17 225 0.0 0.0 0.00 0.00 0.00 60 1014.6
20260904233523 18 225 1.6 1.6 0.00 0.00 0.00 58 1014.6
20260904232513 18 225 0.0 0.0 0.00 0.00 0.00 56 1014.6
20260904232008 18 225 3.2 3.2 0.00 0.00 0.00 58 1014.6
20260904231502 18 225 1.6 1.6 0.00 0.00 0.00 57 1014.6
20260904230954 18 180 1.6 1.6 0.00 0.00 0.00 59 1014.5
20260904230448 18 225 1.6 1.6 0.00 0.00 0.00 56 1014.5
20260904225942 19 158 0.0 0.0 0.00 0.00 0.00 56 1014.5
20260904225437 19 270 0.0 0.0 0.00 0.00 0.00 58 1014.5
20260904224947 18 225 0.0 0.0 0.00 0.00 0.00 58 1014.5